Regional Weather Roundup
Issued by NWS

Home | Current Version | Previous Version | Text Only | Print | Product List | Glossary Off
Versions: 1 2 3 4 5 6 7 8 9 10 11 12 13 14 15 16 17 18 19 20 21 22 23 24 25 26 27 28 29 30 31 32 33 34 35 36 37 38 39 40 41 42 43 44 45 46 47 48 49 50

000
ASUS43 KLOT 241609
RWRIL

ILLINOIS REGIONAL WEATHER ROUNDUP
NATIONAL WEATHER SERVICE CHICAGO/ROMEOVILLE IL
1100 AM CDT SUN MAY 24 2015

NOTE: "FAIR" INDICATES FEW OR NO CLOUDS BELOW 12,000 FEET WITH NO
SIGNIFICANT WEATHER AND/OR OBSTRUCTIONS TO VISIBILITY.

* THESE STATIONS ARE NOT UNDER NWS QUALITY CONTROL. THEY ALSO MAY NOT
  REPORT WEATHER SUCH AS PRECIPITATION OR FOG.

ILZ001-002-007-009-015-016-024-241700-
NORTHWEST ILLINOIS

CITY           SKY/WX    TMP DP  RH WIND       PRES   REMARKS
MOLINE         CLOUDY    62  58  86 E12       30.01F
STERLING*      CLOUDY    64  55  72 E13       30.08F
SAVANNA*       CLOUDY    64  58  81 E10       30.07F
$$

ILZ003-004-008-010-011-017-018-241700-
NORTH CENTRAL ILLINOIS

CITY           SKY/WX    TMP DP  RH WIND       PRES   REMARKS
ROCKFORD       LGT RAIN  65  56  72 E9        30.13F
FREEPORT*      DRIZZLE   60  57  89 E9        30.13F
ROCHELLE*      CLOUDY    67  54  62 E14       30.12F
DE KALB*       LGT RAIN  65  54  66 E10       30.14F
PERU*          LGT RAIN  67  59  76 E9        30.09F
$$

ILZ005-006-012>014-019>023-241700-
NORTHEAST ILLINOIS

CITY           SKY/WX    TMP DP  RH WIND       PRES   REMARKS
CHICAGO-OHARE  CLOUDY    69  53  56 E8        30.15S
CHICAGO-MIDWAY CLOUDY    72  54  53 E8        30.15F
AURORA         CLOUDY    69  53  56 E9        30.13F
LANSING*       CLOUDY    71  51  48 SE7       30.15F
JOLIET*        CLOUDY    72  57  60 SE7       30.13F
WAUKEGAN       LGT RAIN  63  54  72 E5        30.17R
DUPAGE AIRPORT CLOUDY    68  54  60 E7        30.14S
KANKAKEE*      PTSUNNY   76  58  54 SE8G16    30.13F
WHEELING       CLOUDY    68  51  54 E5        30.17F
MORRIS*        CLOUDY    70  56  60 E8        30.10F
ROMEOVILLE*    CLOUDY    70  55  59 SE7       30.13F
NORTHERLY ISL    N/A     60  50  69 E1          N/A
$$

LMZ740>746-241700-
SOUTHERN LAKE MICHIGAN

STATION/POSITION SKY/WX   TEMP    WIND        PRES    VSBY  WAVE
                          AIR SEA DIR/SP/G                  HT/PER
                          (F)     (DEG/KT/KT) (MB)    (MI)  (FT/S)
SOUTHERN BUOY              47 38  150/  4/  6 1022.7F         0
HARRISON CRIB              60     130/  5/  6   N/A
BURNHAM HARBOR             61      30/  2       N/A
CALUMET HARBOR             62     100/  4/  6   N/A
BURNS HARBOR               68     110/  6/ 10 1022.0F
MICHIGAN CITY              67     110/  7/  8   N/A
MICHIGAN CITY 6N           61 54  130/  6/  6   N/A           0
ST. JOSEPH                 63 55  190/  6/  8   N/A           0
$$

ILZ025>027-034>036-040-047-049-050-058-095>099-241700-
WEST-CENTRAL ILLINOIS

CITY           SKY/WX    TMP DP  RH WIND       PRES   REMARKS
QUINCY         CLOUDY    74  60  61 S16G22    29.97F
GALESBURG*     CLOUDY    68  60  74 E7        30.01F
MACOMB*        CLOUDY    73  60  64 SE15      30.02F
JACKSONVILLE*  PTSUNNY   80  64  57 S12G20    30.02F HX  82
PITTSFIELD*    MOSUNNY   78  62  58 S17G25    30.01F
$$

ILZ028>032-037-038-041>044-048-051>054-059>061-241700-
CENTRAL ILLINOIS

CITY           SKY/WX    TMP DP  RH WIND       PRES   REMARKS
PONTIAC        CLOUDY    78  58  50 SE12      30.10F
BLOOMINGTON    CLOUDY    78  60  53 S18G26    30.09F
DECATUR        PTSUNNY   79  61  53 S15       30.09F HX  80
PEORIA         CLOUDY    76  59  55 SE9       30.04F
LACON*         CLOUDY    71  57  61 SE6       30.05F
LINCOLN*       PTSUNNY   80  59  47 S17G26    30.04F HX  81
SPRINGFIELD    PTSUNNY   80  62  54 S15G22    30.05F HX  81
TAYLORVILLE    PTSUNNY   75  63  64 S15       30.08S
$$

ILZ033-039-045-046-055>057-062-063-241700-
EAST-CENTRAL ILLINOIS

CITY           SKY/WX    TMP DP  RH WIND       PRES   REMARKS
CHAMPAIGN      PTSUNNY   83  58  42 S20G25    30.11F HX  83
DANVILLE*      SUNNY     78  58  49 S14       30.11F
RANTOUL*       PTSUNNY   83  59  43 S15G29    30.11F HX  83
MATTOON        MOSUNNY   76  59  55 S13G28    30.12F
PARIS*         SUNNY     80  58  46 S18       30.15F HX  81
$$

ILZ079-100>102-241700-
SOUTHWEST ILLINOIS

CITY           SKY/WX    TMP DP  RH WIND       PRES   REMARKS
ALTON          PTSUNNY   75  68  78 S13       30.05F
BELLEVILLE     MOSUNNY   80  66  63 S18       30.04F HX  82
CAHOKIA*       MOSUNNY   79  63  57 S14G21    30.03F HX  80
SPARTA*        MOSUNNY   78  65  65 S15G25    30.08F
$$

ILZ064>066-069>071-074>076-080>082-084>086-088>090-092>094-241700-
SOUTH-CENTRAL ILLINOIS

CITY           SKY/WX    TMP DP  RH WIND       PRES   REMARKS
CARBONDALE     MOSUNNY   80  64  58 S15       30.09F HX  82
CAIRO*         SUNNY     80  64  59 S17G24    30.11F HX  81
EFFINGHAM*     MOSUNNY   79  57  47 SE12G17   30.13S HX  80
MT. VERNON     MOSUNNY   81  63  54 S12G21    30.12S HX  82
CENTRALIA*     MOSUNNY   83  62  48 S13G18    30.10S HX  83
SALEM*         MOSUNNY   82  61  49 S14G20    30.10F HX  82
METROPOLIS*    PTSUNNY   80  63  56 S10       30.12F HX  81
$$

ILZ067-068-072-073-078-083-087-091-241700-
SOUTHEAST ILLINOIS

CITY           SKY/WX    TMP DP  RH WIND       PRES   REMARKS
LAWRENCEVILLE  SUNNY     80  57  45 S18G25    30.16F HX  80
FLORA*         SUNNY     79  59  50 S17       30.12F HX  80
FAIRFIELD*     SUNNY     80  61  52 S14G21    30.11F HX  81
HARRISBURG*    SUNNY     80  60  51 S15G23    30.13F HX  80
ROBINSON*      PTSUNNY   79  56  45 S14G20    30.16S HX  80
CARMI*         SUNNY     81  52  36 SE14      30.13F HX  80
$$

ABBREVIATIONS USED IN REMARKS
   TC - TEMPERATURE IN CELSIUS
  WCI - WIND CHILL INDEX
   HX - HEAT INDEX
  VSB - VISIBILITY
$$



USA.gov is the U.S. government's official web portal to all federal, state and local government web resources and services.